Location: Bear Valley Meadows
(40.9851°N, 123.0761°W)
Time: 04:44:17
(UTC+00:00)

Tiangong - Visible Passes

Search period start: 14 July 2024 00:00
Search period end: 24 July 2024 00:00
Orbit: 373 x 378 km, 41.5° (Epoch: 13 July)

Date Brightness Start Highest point End Pass type
(mag) Time Alt. Az. Time Alt. Az. Time Alt. Az.
14 Jul -1.7 11:02:46 41° SSE 11:02:55 41° SSE 11:05:52 10° E visible
15 Jul 0.8 10:02:59 11° E 10:02:59 11° E 10:03:07 10° E visible
15 Jul -2.3 11:35:01 21° WSW 11:36:54 83° S 11:40:01 10° E visible
16 Jul -1.2 10:35:10 40° ESE 10:35:10 40° ESE 10:37:22 10° E visible
16 Jul -2.1 12:07:50 10° W 12:10:56 79° N 12:14:02 10° E visible
17 Jul -2.2 11:07:18 42° W 11:08:13 84° N 11:11:19 10° E visible
18 Jul 0.1 10:07:27 20° E 10:07:27 20° E 10:08:34 10° E visible
18 Jul -2.2 11:39:27 13° W 11:42:07 83° N 11:45:13 10° E visible
19 Jul -1.9 10:39:38 64° ENE 10:39:38 64° ENE 10:42:22 10° E visible
19 Jul -2.2 12:12:48 10° W 12:15:52 63° SSW 12:18:57 10° ESE visible
20 Jul -2.3 11:11:56 38° W 11:13:00 86° S 11:16:06 10° ESE visible
21 Jul 0.4 10:12:23 16° E 10:12:23 16° E 10:13:08 10° E visible
21 Jul -1.9 11:44:26 17° W 11:46:34 45° SSW 11:49:32 10° SE visible
22 Jul -0.5 10:45:11 25° ESE 10:45:11 25° ESE 10:46:40 10° ESE visible
22 Jul -0.6 12:17:36 10° WSW 12:19:51 18° SSW 12:22:06 10° SSE visible
23 Jul -0.4 11:18:27 20° SSE 11:18:27 20° SSE 11:19:42 10° SE visible
